Zurück zum Katalog

IRS 1A

AktivWissenschaftSSO
NORAD 18960·PAYLOAD·🇮🇳 India

Gestartet Mar 17, 1988 von Baikonur Cosmodrome

Loading…

Nächste Überflüge (nächste 24 Stunden)

TLE

AktuellSource: Space-Track

Epoche: Sep 14, 2026, 03:17 UTC

1 18960U 88021A   26257.13749655  .00000093  00000-0  96381-4 0  9998
2 18960  98.8412 308.5090 0013527 327.0897  56.9694 13.97178077865599

Verfolge IRS 1A in Echtzeit mit AllMySat

Download on the App Store